Mankato, MN

10:31 PM CDT on August 23, 2019 (GMT -0500)
Mankato Regional

Weather History for KMKT - May, 2019

Change the Weather History Date:

Saturday, May 18, 2019

  Actual Average Record
Temperature  
Mean Temperature 52 °F -  
Max Temperature 57 °F 64 °F 93 °F (1998)
Min Temperature 46 °F 47 °F 37 °F (2002)
Degree Days  
Heating Degree Days 12    
Growing Degree Days 2 (Base 50)    
Moisture  
Dew Point 49 °F    
Average Humidity 89    
Maximum Humidity 97    
Minimum Humidity 80    
Precipitation  
Precipitation 0.19 in - - ()
Sea Level Pressure  
Sea Level Pressure 29.66 in    
Wind  
Wind Speed 17 mph (East)    
Max Wind Speed 28 mph    
Max Gust Speed 31 mph    
Visibility 10 miles    
Events Rain , Thunderstorm    
Averages and records for this station are not official NWS values.
T = Trace of Precipitation, MM = Missing Value Source: NWS Daily Summary

Daily Weather History Graph

Daily Weather History Graph

Search for Another Location

Airport or City:

Astronomy

May. 18, 2019 Rise Set
Actual Time 5:46 AM CDT 8:38 PM CDT
Civil Twilight 5:12 AM CDT 9:12 PM CDT
Nautical Twilight 4:29 AM CDT 9:56 PM CDT
Astronomical Twilight 3:38 AM CDT 10:47 PM CDT
Moon 8:32 PM CDT (5/18) 5:56 AM CDT (5/18)
Length of Visible Light 16h 00m
Length of Day
14h 52m
Full, 100% of the Moon is Illuminated
May 18
Full
May 18
Full
May 26
Last Quarter
Jun 3
New
Jun 10
First Quarter

Hourly Weather History & Observations

Time (CDT) Temp. Dew Point Humidity Pressure Visibility Wind Dir Wind Speed Gust Speed Precip Events Conditions
12:03 AM 53.6 °F 51.8 °F 94% 29.72 in 10.0 mi East 16.1 mph 25.3 mph 0.00 in   Overcast
12:56 AM 54.0 °F 51.1 °F 90% 29.73 in 10.0 mi East 17.3 mph - 0.00 in   Overcast
1:56 AM 53.1 °F 48.9 °F 86% 29.68 in 10.0 mi ESE 23.0 mph 31.1 mph N/A   Overcast
2:56 AM 52.0 °F 50.0 °F 93% 29.66 in 9.0 mi ESE 27.6 mph 31.1 mph 0.00 in Rain Light Rain
3:56 AM 51.1 °F 50.0 °F 96% 29.62 in 10.0 mi ESE 21.9 mph 28.8 mph 0.01 in   Overcast
4:56 AM 52.0 °F 50.0 °F 93% 29.65 in 10.0 mi East 15.0 mph 23.0 mph N/A   Overcast
5:23 AM 51.8 °F 50.0 °F 94% 29.68 in 10.0 mi Variable 6.9 mph - 0.00 in Rain , Thunderstorm Light Rain
5:27 AM 51.8 °F 50.0 °F 94% 29.68 in 6.0 mi SE 8.1 mph - 0.02 in Rain , Thunderstorm Rain
5:43 AM 51.8 °F 50.0 °F 94% 29.69 in 7.0 mi ESE 5.8 mph - 0.06 in Rain Light Rain
5:56 AM 52.0 °F 50.0 °F 93% 29.69 in 10.0 mi East 8.1 mph - 0.06 in Rain Light Rain
6:56 AM 52.0 °F 50.0 °F 93% 29.67 in 10.0 mi ESE 15.0 mph - 0.00 in   Overcast
8:10 AM 51.8 °F 48.2 °F 88% 29.62 in 10.0 mi East 20.7 mph 24.2 mph N/A   Overcast
8:56 AM 50.0 °F 48.0 °F 93% 29.64 in 10.0 mi East 15.0 mph 24.2 mph 0.00 in Rain Light Rain
9:44 AM 51.8 °F 48.2 °F 88% 29.62 in 10.0 mi East 16.1 mph 21.9 mph 0.00 in   Overcast
9:56 AM 52.0 °F 48.9 °F 89% 29.65 in 10.0 mi ESE 17.3 mph 21.9 mph 0.00 in   Overcast
10:56 AM 55.0 °F 51.1 °F 86% 29.62 in 10.0 mi East 17.3 mph - N/A   Overcast
11:56 AM 57.0 °F 52.0 °F 83% 29.64 in 10.0 mi ENE 15.0 mph - N/A   Overcast
12:56 PM 57.0 °F 52.0 °F 83% 29.66 in 10.0 mi ENE 15.0 mph 19.6 mph N/A   Overcast
1:56 PM 57.0 °F 51.1 °F 81% 29.63 in 10.0 mi ENE 18.4 mph 23.0 mph N/A   Overcast
2:53 PM 55.4 °F 50.0 °F 82% 29.63 in 10.0 mi NE 18.4 mph 27.6 mph N/A   Overcast
2:56 PM 55.9 °F 51.1 °F 84% 29.65 in 10.0 mi ENE 17.3 mph 27.6 mph N/A   Overcast
3:37 PM 55.4 °F 50.0 °F 82% 29.64 in 10.0 mi NE 23.0 mph 28.8 mph N/A   Scattered Clouds
3:56 PM 55.0 °F 48.9 °F 80% 29.66 in 10.0 mi ENE 21.9 mph 25.3 mph N/A   Clear
4:38 PM 55.4 °F 50.0 °F 82% 29.64 in 10.0 mi NE 19.6 mph 26.5 mph N/A   Mostly Cloudy
5:56 PM 53.1 °F 48.0 °F 83% 29.66 in 10.0 mi ENE 20.7 mph 28.8 mph N/A   Overcast
6:56 PM 50.0 °F 46.0 °F 86% 29.66 in 10.0 mi ENE 21.9 mph 26.5 mph N/A   Overcast
7:56 PM 48.9 °F 46.0 °F 90% 29.69 in 10.0 mi ENE 21.9 mph 28.8 mph N/A   Overcast
8:19 PM 48.2 °F 46.4 °F 93% 29.67 in 10.0 mi ENE 19.6 mph 26.5 mph N/A   Overcast
8:56 PM 48.0 °F 46.0 °F 93% 29.70 in 9.0 mi ENE 20.7 mph - N/A   Overcast
9:56 PM 48.0 °F 46.0 °F 93% 29.73 in 8.0 mi East 18.4 mph 26.5 mph N/A   Overcast
10:56 PM 48.0 °F 46.9 °F 96% 29.71 in 10.0 mi ENE 13.8 mph - 0.02 in Rain Light Rain
11:56 PM 46.9 °F 46.0 °F 97% 29.68 in 10.0 mi NE 18.4 mph 27.6 mph 0.10 in Rain Light Rain